Presure
139 136 128 149 133 114 128 117 127 136 122 130 132 141 114 113 135 120 124 151 124 141 128 126 132 137 133 154 142 122 132 134 132 143 124 138 89 118 133 131 144 133 141
133 144 154 121 143 128 114 125 124 132 136 103 131 107 107 131 105 114 127 118 106 109 112 120 119 110 107 120 136 118 133 78 162 111 161 131 140 117 119 151 149 141 135
121 144 117 131 139 143 140 119 110 121 114 108 100 141 136 116 114 102 132 135 129 147 156 105 131 123 112 121 110 114 133 101 155 125 109 162 130 174 124 121 142 129 148
148 117 152 124 123 133 128 125 121 107 103 117 114 102 96 98 123 105 116 103 103 102 97 110 137 109 159 127 121 123 123 133 102 145 121 117 121 164 139 170 174 152 163
142 148 115 150 143 137 143 137 121 122 116 107 118 113 107 101 108 116 98 103 102 140 123 162 128 162 141 116 136 133 143 163 122 100 121 120 133 140 134 141 129 152 131
140 158 126 132 145 160 132 136 130 129 105 109 148 148 136 124 102 124 97 104 110 149 143 145 159 155 144 163 118 112 114 156 191 189 147 129 102 198 133 259 180 115 109
124 134 154 124 115 139 156 153 110 130 114 143 110 109 115 130 108 151 111 130 127 109 98 145 136 120 150 139 114 157 166 142 124 116 132 184 124 121 165 131 146 140 159
123 123 137 144 134 131 161 139 136 110 110 119 107 124 132 132 112 114 132 131 110 112 113 130 138 127 126 110 136 135 116 135 157 128 123 145 158 156 222 121 157 118 125
157 132 123 118 124 150 155 149 143 145 118 112 130 105 123 129 115 150 119 120 126 120 132 110 121 104 105 117 156 118 124 118 146 164 125 166 125 140 131 219 150 150 169
144 127 147 127 143 134 161 154 126 127 161 116 145 106 105 111 109 110 137 126 116 109 107 117 116 112 109 109 105 149 135 128 150 118 162 185 132 104 119 216 138 212 127
142 131 107 167 167 140 132 135 133 146 142 153 127 122 106 109 104 110 116 120 115 101 106 135 119 137 127 141 137 139 137 139 112 103 153 165 157 159 154 201 124 183 139
144 130 157 123 150 136 152 175 135 136 150 148 138 142 162 115 112 111 118 138 120 119 146 132 125 111 114 119 154 146 114 138 110 145 167 151 177 164 116 193 196 201 196
180 160 154 158 139 152 128 131 124 128 136 126 137 132 140 148 157 116 138 117 121 120 145 134 156 115 150 128 146 183 126 122 114 117 163 148 151 170 202 138 181 166 197
153 175 154 160 152 124 131 164 149 138 173 147 143 145 161 136 140 119 144 151 121 140 155 145 108 141 97 110 141 174 125 186 110 107 150 139 150 165 218 119 207 103 169
173 170 169 168 167 174 176 140 129 133 168 144 170 145 152 162 134 111 133 130 132 149 161 150 144 160 112 169 129 160 139 123 164 118 128 125 151 123 212 127 183 139 125
170 172 175 176 173 177 173 168 147 168 164 165 134 174 172 170 146 177 165 168 173 144 177 135 161 161 138 117 147 152 109 129 118 115 155 118 120 172 156 127 161 129 149
177 178 176 175 177 176 175 175 175 172 176 175 163 168 162 150 161 148 169 167 169 139 141 110 165 151 132 152 124 130 159 123 125 160 116 191 208 132 190 165 100 125 149
192 199 199 204 213 212 197 195 195 192 192 184 180 181 181 163 138 132 143 143 179 161 167 162 111 174 164 141 122 153 130 109 122 173 141 142 128 131 162 183 162 130 115
189 182 185 183 183 196 198 197 203 204 204 213 205 195 182 187 132 135 130 148 178 167 146 130 133 133 149 129 123 160 168 135 112 109 140 125 132 121 166 104 101 125 105
188 194 181 195 193 203 184 188 190 195 192 200 199 198 196 207 219 211 133 173 176 193 173 170 145 143 153 188 164 158 144 183 182 167 138 151 136 178 162 133 169 158 167
201 180 182 193 190 190 194 212 198 195 188 184 183 202 209 210 201 201 200 209 189 127 209 208 135 138 146 151 183 177 136 108 131 177 172 129 145 109 157 157 185 157 136
212 207 207 232 219 191 205 198 198 203 175 200 197 193 192 193 205 210 204 195 206 196 200 173 207 188 211 199 187 111 135 187 129 175 106 104 159 168 145 159 136 176 143
228 230 236 241 240 244 217 191 213 211 201 187 192 186 200 200 195 202 191 208 196 200 196 201 190 159 173 181 201 188 189 204 196 193 172 133 143 173 159 185 155 149 131
238 246 256 264 265 268 269 255 240 225 224 200 211 198 189 187 171 200 201 193 201 200 192 192 201 189 211 195 197 177 162 188 134 178 129 132 169 165 174 146 160 161 147
232 235 249 335 251 253 259 266 267 243 210 250 226 199 182 193 204 192 197 197 197 197 198 193 190 184 193 195 134 143 156 190 182 182 145 132 126 171 162 165 159 152 142
310 312 312 319 332 349 355 274 261 232 182 213 249 261 240 184 194 192 187 201 204 196 195 204 186 186 181 189 185 168 182 178 161 167 184 161 150 172 148 144 164 140 159
Wind_Speed
45 45 44 44 41 37 40 37 36 35 36 37 36 35 26 22 39 29 27 38 31 34 29 25 31 37 32 44 42 19 34 38 34 48 16 36 19 20 21 23 45 24 35
48 50 49 44 45 45 41 44 40 42 41 33 43 28 32 41 26 23 35 30 24 24 24 25 24 23 22 22 39 21 40 17 67 22 74 27 42 20 20 61 62 35 26
46 53 46 49 49 52 50 47 40 45 38 34 35 44 43 38 31 34 42 43 39 45 42 24 36 26 23 28 23 27 37 20 53 25 23 67 27 70 28 28 45 24 62
56 49 57 50 50 54 54 51 48 39 37 43 40 36 37 35 42 32 34 30 30 30 30 30 35 25 40 35 25 26 26 40 24 52 33 30 23 59 40 70 81 60 81
62 62 52 62 59 60 62 57 52 52 45 40 45 42 39 40 41 42 34 34 32 46 37 47 44 44 45 27 46 42 52 51 24 29 35 25 41 39 30 49 30 58 38
61 64 60 60 66 65 58 60 57 58 47 46 58 58 56 52 40 48 36 36 36 49 46 46 48 46 54 44 32 28 28 37 42 39 56 39 28 49 28 29 66 30 29
64 66 66 64 58 65 68 65 54 60 55 59 51 48 50 54 44 59 42 47 46 37 35 48 46 35 46 44 32 45 40 51 36 33 38 48 32 29 58 31 50 38 63
67 66 66 72 70 66 70 68 64 57 57 60 51 57 61 57 47 47 52 51 42 40 40 45 44 41 38 34 40 39 35 39 44 43 42 38 49 46 26 35 60 32 39
77 77 69 66 67 73 74 71 71 71 65 63 64 51 62 62 52 66 52 51 51 46 51 42 42 36 36 39 49 38 44 39 50 38 45 40 42 40 43 31 39 54 52
78 77 80 77 76 77 76 77 71 68 76 68 76 59 54 55 52 50 64 58 48 45 44 47 43 41 40 41 40 46 50 42 46 43 42 48 56 34 39 29 38 30 42
86 84 68 88 87 83 78 78 76 80 77 77 74 71 60 61 52 56 57 58 54 47 46 57 48 54 49 51 49 49 50 43 43 45 45 41 42 38 35 31 41 31 42
91 85 91 79 85 85 83 90 82 80 82 82 81 81 83 72 67 60 63 65 60 56 66 57 55 48 49 49 52 50 48 48 47 47 48 50 43 34 48 27 26 28 31
103 100 89 90 93 91 85 85 77 79 84 78 84 80 85 84 83 68 72 67 68 63 62 65 71 52 56 52 54 57 51 55 52 48 49 49 40 38 31 37 32 32 31
97 105 96 98 97 87 90 97 93 92 96 92 89 91 92 82 81 73 79 76 64 72 75 68 55 63 54 54 56 57 57 51 52 50 46 47 44 42 24 60 20 46 34
105 106 107 107 107 108 108 102 91 93 97 93 95 95 94 95 81 71 78 77 75 78 79 73 71 73 60 67 62 62 59 60 47 59 50 51 50 57 23 60 17 45 63
108 110 111 111 110 112 111 107 103 105 101 101 92 100 100 98 93 95 87 86 84 81 81 70 77 72 66 66 64 63 59 64 62 60 49 58 56 33 40 52 41 65 51
115 116 115 116 117 116 115 115 116 112 112 109 103 103 101 98 99 94 95 91 88 82 79 68 76 77 72 73 69 66 63 67 66 54 64 37 35 53 38 40 55 71 58
107 105 108 106 102 104 118 122 122 121 120 116 113 113 110 104 95 87 93 89 97 88 89 89 72 80 77 72 71 71 68 62 67 53 59 61 52 55 45 39 48 75 75
110 115 115 116 118 115 116 117 113 114 114 110 112 114 115 113 92 94 87 94 102 95 88 82 82 78 79 76 75 73 65 66 67 67 65 65 59 61 50 63 67 70 57
113 114 119 116 120 118 125 123 121 119 118 116 117 116 115 110 102 104 92 100 99 103 99 95 88 84 84 82 81 75 74 61 57 61 71 61 67 45 58 66 57 60 64
111 125 124 126 126 127 125 121 124 124 124 122 120 115 111 110 111 108 107 99 104 91 96 93 87 83 86 83 75 70 77 72 77 60 59 73 67 76 58 62 73 62 74
114 120 123 114 123 129 128 131 128 124 113 123 121 120 120 117 111 109 106 105 100 101 96 94 88 87 80 82 76 79 74 65 81 62 75 75 63 54 67 63 75 73 74
120 122 123 123 121 119 121 130 132 132 129 126 125 118 120 119 118 113 110 106 103 101 99 97 92 88 83 74 72 72 71 60 61 60 65 78 72 64 65 62 66 70 80
129 128 127 126 125 125 124 128 125 134 136 132 131 129 124 122 111 118 116 112 104 103 102 98 92 89 83 79 72 69 72 65 84 66 84 80 74 72 66 76 60 75 79
125 124 124 106 125 124 123 126 127 125 139 127 132 128 120 125 123 122 120 117 115 106 104 101 97 91 85 81 92 90 78 68 70 69 78 85 89 75 80 74 71 76 80
91 93 95 99 102 102 106 120 127 126 110 128 131 124 127 118 129 124 121 121 116 114 106 105 100 95 91 85 83 83 75 76 81 77 73 77 78 73 79 81 77 85 77
Wind_Direction
237 236 234 239 233 241 239 245 235 224 235 232 232 221 234 232 230 232 223 232 236 225 251 246 248 246 244 236 235 263 260 265 257 266 259 268 240 244 279 265 278 277 278
238 236 237 232 238 230 241 234 236 229 226 215 228 219 215 233 211 232 245 235 221 220 220 236 231 221 234 236 251 249 261 237 245 238 250 273 273 245 244 256 269 277 272
235 239 236 233 235 239 237 234 234 235 239 228 220 230 231 227 239 223 240 236 243 238 241 226 249 248 225 244 233 240 250 238 249 254 239 253 273 256 260 254 272 260 267
240 235 238 232 234 235 229 237 236 233 223 237 235 223 223 223 231 226 242 226 228 230 225 238 241 231 257 252 255 259 261 272 241 264 248 248 258 260 266 255 254 267 261
237 237 237 238 239 238 241 239 238 239 242 234 240 235 227 228 231 237 230 232 233 240 241 250 240 250 244 250 256 261 255 246 261 242 272 250 275 265 268 263 257 272 267
248 243 240 239 240 245 235 238 235 235 240 242 242 239 236 238 232 238 233 234 236 242 243 242 248 247 240 257 258 251 254 256 282 278 261 279 253 269 268 263 249 257 257
243 244 241 243 241 241 242 243 241 235 244 243 241 238 244 244 239 242 238 241 241 239 243 245 247 246 247 251 255 246 254 256 270 245 270 272 269 258 255 268 280 278 257
246 245 247 240 243 245 247 243 241 245 243 239 247 243 241 243 237 239 243 245 240 241 244 245 248 249 248 251 260 255 260 258 264 265 262 268 250 264 259 259 271 255 262
250 242 246 247 246 245 243 250 244 243 242 244 239 247 243 243 244 249 240 242 245 241 248 241 243 243 248 253 265 256 261 262 248 257 264 251 272 274 276 248 273 267 264
241 246 241 247 251 245 252 243 243 241 247 243 250 250 249 245 247 245 245 245 241 239 241 245 244 244 242 246 248 252 250 259 246 264 258 285 270 252 269 245 267 229 269
240 247 249 254 254 242 246 244 243 243 245 248 245 248 249 249 246 248 249 248 243 241 244 246 246 249 248 252 260 250 245 255 256 255 261 267 280 268 255 253 269 244 261
251 251 252 251 251 246 256 258 244 245 245 245 248 248 253 245 248 250 251 250 250 246 253 250 250 245 246 248 260 252 253 256 256 268 277 272 287 261 261 239 233 227 226
257 255 250 251 245 253 251 248 244 246 245 242 245 246 248 247 251 245 248 249 249 250 253 250 257 246 255 253 255 270 250 246 254 253 267 253 258 251 259 255 247 245 224
251 256 252 252 255 250 249 255 250 248 257 245 244 244 252 245 245 244 250 253 247 249 254 252 241 250 243 247 248 265 246 266 251 253 262 248 258 249 202 269 205 262 256
254 253 253 254 255 256 256 246 250 249 254 249 253 246 249 253 249 247 245 245 245 249 253 251 252 256 249 258 248 261 251 251 261 249 255 253 258 259 203 264 208 273 266
255 256 256 255 254 254 254 253 250 252 250 252 248 254 255 254 249 259 254 256 255 250 257 250 251 252 249 251 254 255 251 250 253 252 260 256 258 241 267 259 254 261 250
258 257 257 257 257 256 255 254 255 255 256 255 248 250 250 247 248 248 254 250 250 248 248 249 254 251 251 254 247 246 255 251 252 260 256 238 212 259 190 247 267 269 251
256 254 255 255 252 252 256 257 257 256 255 255 255 255 254 251 249 246 248 248 255 248 250 250 250 254 252 247 248 255 249 254 254 255 256 261 249 260 243 203 238 263 277
254 256 256 256 257 255 255 255 254 255 255 253 253 253 255 255 244 247 244 250 254 250 250 244 246 245 249 242 247 254 252 253 256 257 256 260 258 260 226 265 270 261 268
255 255 252 254 254 252 255 254 254 253 254 254 255 255 254 251 248 250 246 249 250 253 252 251 249 250 252 255 253 250 248 246 243 247 254 255 262 233 227 260 232 246 238
256 254 253 252 250 251 251 249 247 250 252 253 255 254 252 250 252 250 250 248 253 243 249 249 246 246 250 245 248 245 245 254 249 240 242 257 258 264 253 258 206 258 265
259 254 251 258 252 252 252 252 250 247 255 247 249 251 254 254 251 249 248 250 247 251 249 247 247 248 244 245 245 249 249 244 249 236 256 259 245 238 255 244 261 227 266
269 267 264 263 260 257 258 256 251 249 247 248 249 249 246 248 251 250 251 246 247 247 249 248 249 245 244 243 241 242 241 238 230 231 234 255 250 230 244 216 247 257 265
272 272 271 268 264 260 257 254 247 246 248 249 243 245 247 249 253 248 249 250 245 244 247 248 247 246 243 242 238 237 239 234 247 230 253 255 234 236 224 253 233 247 258
279 278 276 271 269 265 259 255 251 248 252 246 245 246 251 247 242 246 247 248 248 245 244 247 247 246 244 242 247 247 241 231 232 231 243 247 253 234 235 233 238 247 257
286 281 276 271 266 261 258 257 251 248 250 243 243 240 239 243 246 245 248 243 243 245 243 242 245 245 245 243 241 241 236 235 243 241 231 241 248 230 252 251 237 257 247